Wind_Speed
12 12 13 14 15 15 16 17 18 19 19 20 20 21 21 22 23 23 24 24 24 24 24 24 25 25 26 26 27 28 30 31 33 34 36 38 39 41 42 42 41 41 41 41 41 41 40 39 38 37 36 35 34 31 29 27 24 23 20 17 16 15 13 11 10 8 7 4 4 8 11 13 13 17 20 16 17 20 21 20 22 24 25 26 26 26 25 22
13 14 15 15 16 17 18 19 20 21 21 22 23 23 23 24 25 25 26 26 27 27 27 27 27 27 27 27 27 28 29 30 31 32 34 36 37 40 42 42 42 42 42 42 42 42 41 40 39 38 38 36 35 33 31 29 27 25 22 19 17 17 16 13 11 11 8 5 5 8 12 14 13 17 20 16 16 18 18 19 21 23 24 25 26 26 25 23
15 15 16 17 18 19 20 21 22 23 24 25 25 26 26 26 27 27 28 28 28 29 29 29 29 29 29 29 28 28 29 29 30 32 32 33 35 38 41 42 42 43 43 43 43 43 42 41 40 39 39 38 36 35 33 31 29 27 24 21 19 18 18 15 13 13 10 7 5 7 10 14 15 17 18 14 15 16 16 17 20 22 23 24 25 26 26 24
16 17 18 19 21 22 23 24 25 26 27 28 28 28 29 29 29 30 30 30 30 30 30 30 31 31 31 31 30 30 30 30 31 31 31 31 33 35 38 41 42 43 43 44 44 43 43 42 41 40 40 39 37 36 34 32 31 29 26 23 20 19 20 18 15 15 14 11 8 9 9 13 17 17 15 13 14 13 14 16 18 21 22 23 24 25 26 24
18 19 20 22 23 24 25 26 27 28 29 30 31 31 32 32 32 33 33 33 33 32 32 32 32 32 33 33 32 32 32 32 32 31 31 31 32 33 36 38 40 42 43 44 45 44 44 43 42 41 41 40 39 37 36 34 33 31 28 24 22 21 21 19 17 17 16 14 13 12 9 14 21 18 12 11 13 11 13 15 17 19 21 22 24 25 25 24
20 21 22 24 25 26 28 29 30 31 31 32 33 34 34 34 34 35 35 35 35 34 34 34 34 34 34 34 34 34 34 34 34 32 32 32 32 33 34 36 38 40 42 44 45 45 45 44 43 43 42 41 40 38 37 36 35 33 30 27 25 23 23 21 19 18 17 16 13 11 8 15 24 20 12 10 11 10 12 13 15 18 19 21 23 24 25 24
22 23 24 26 27 29 30 31 32 33 34 34 35 35 36 37 37 37 37 37 37 36 36 36 36 36 35 35 35 35 36 36 35 35 34 34 33 33 34 35 36 38 41 43 44 45 45 45 44 44 43 42 42 40 39 37 36 35 31 29 27 25 23 22 20 19 18 14 10 12 14 19 24 19 10 8 8 8 10 12 14 16 18 19 21 22 24 24
25 26 27 29 30 31 32 33 34 35 36 36 37 37 37 38 38 39 39 39 38 38 37 37 37 37 37 37 36 36 37 37 37 37 36 36 35 35 34 35 36 37 39 42 44 45 45 45 45 45 44 43 43 41 40 39 37 36 33 31 29 26 25 24 22 20 19 15 11 14 19 22 22 15 7 6 6 7 9 10 12 15 16 18 20 21 23 24
28 29 31 32 33 34 35 36 36 37 38 38 38 39 39 39 39 40 40 40 40 40 39 38 38 38 39 39 38 38 38 38 38 38 38 38 37 37 36 36 36 37 38 41 43 44 43 43 44 45 45 45 44 43 42 40 39 37 35 32 30 28 26 25 23 21 20 18 15 17 20 22 20 12 6 5 5 5 7 8 10 13 15 16 19 20 21 23
31 33 34 36 36 37 38 38 39 39 39 39 40 40 40 40 40 40 40 41 41 41 41 40 39 39 40 40 40 39 39 39 38 38 39 40 40 40 39 38 37 37 38 40 41 42 41 42 43 45 47 47 45 44 43 42 40 38 36 34 31 30 28 26 25 22 21 20 19 20 20 19 17 12 6 4 4 4 5 7 9 11 13 15 17 18 20 22
35 36 37 38 39 40 40 41 41 41 40 40 40 40 40 40 40 40 40 41 41 42 42 42 41 40 41 42 41 41 41 40 39 39 40 41 41 41 41 41 40 39 39 39 39 39 39 40 42 44 46 48 46 45 45 43 41 39 37 35 33 31 30 28 25 22 22 21 20 19 16 16 17 12 5 3 3 3 4 6 7 9 11 13 16 17 18 20
37 39 40 40 41 42 42 43 43 42 41 40 40 40 40 40 40 40 41 41 42 42 43 43 43 42 42 43 43 42 41 40 40 40 41 42 42 42 43 43 42 41 39 38 38 37 38 39 40 42 46 48 48 47 46 44 43 41 39 36 34 33 31 29 26 22 21 21 20 18 16 17 17 12 6 5 5 2 4 5 5 7 9 11 14 15 17 19
40 41 42 42 43 43 44 44 44 43 43 42 41 41 41 41 42 42 42 42 42 43 43 43 44 44 44 44 44 43 42 41 41 41 41 42 43 43 44 44 44 43 41 39 38 37 38 38 39 41 45 47 48 49 48 46 44 42 40 38 35 33 32 31 27 25 23 22 20 19 19 19 18 14 9 8 7 4 5 4 3 5 7 9 12 14 15 17
43 43 44 44 45 45 46 46 45 45 45 44 44 44 44 44 44 44 43 43 43 43 44 44 45 45 45 45 45 44 43 42 42 42 43 43 44 45 45 46 46 44 43 41 39 38 38 38 38 40 43 46 48 50 49 48 46 44 42 39 37 34 33 32 30 29 26 24 23 22 22 21 19 15 12 11 10 7 7 5 3 3 5 8 10 13 14 16
45 46 46 46 47 47 47 47 47 47 47 47 47 47 46 46 45 44 44 43 43 43 44 44 45 45 45 46 46 45 45 44 44 44 44 45 45 46 46 47 46 46 44 43 42 41 40 39 38 39 41 45 48 50 50 49 48 47 44 41 39 37 34 31 31 32 29 27 27 25 24 23 21 18 16 16 14 12 10 7 3 2 4 6 9 11 12 14
48 48 48 49 49 49 49 50 50 50 50 49 49 48 47 46 45 44 43 42 42 43 43 44 44 45 46 47 47 47 46 45 45 46 46 46 47 47 47 47 47 46 45 44 44 43 42 41 39 39 41 44 47 50 50 51 50 49 47 44 41 40 38 33 30 32 33 32 30 27 25 25 23 22 21 20 18 15 12 7 4 1 2 4 7 9 11 12
49 50 50 50 50 51 52 52 52 51 50 49 48 47 45 44 43 42 41 41 41 42 42 43 44 45 45 47 48 48 47 47 46 47 47 47 48 48 48 48 47 47 45 45 46 46 45 43 41 40 42 44 47 49 50 52 53 51 48 46 44 42 43 42 37 33 34 33 30 27 28 27 25 23 22 21 19 16 12 9 6 3 1 2 5 8 9 11
51 51 51 52 52 53 53 53 52 50 49 47 45 44 42 41 40 39 39 39 39 40 41 42 43 44 45 46 47 48 49 48 47 48 49 49 49 49 49 49 48 47 46 46 47 48 47 45 43 42 43 44 46 48 51 54 55 52 49 47 46 44 45 47 44 38 36 34 30 29 31 30 27 25 23 21 19 16 13 10 7 5 3 1 4 6 8 10
52 52 53 53 54 54 53 51 49 47 45 42 41 40 38 37 37 36 36 36 37 38 39 40 41 42 44 45 47 48 48 49 48 48 49 50 50 50 50 50 50 49 48 48 48 49 49 48 46 44 45 46 48 50 53 55 54 52 51 49 48 47 47 48 47 42 39 37 34 31 32 33 29 25 24 21 19 17 15 12 9 7 5 2 3 6 7 8
53 54 54 54 53 52 50 47 45 42 40 38 37 36 35 34 34 34 34 35 35 36 37 38 39 41 42 44 45 46 47 48 49 49 50 50 50 50 51 51 51 50 50 49 49 50 50 49 48 48 49 50 51 53 54 53 53 53 53 52 50 49 49 48 47 44 41 38 36 35 35 35 32 26 24 22 20 18 17 14 11 9 6 4 2 5 6 7
54 54 54 53 51 48 45 42 39 37 36 35 34 33 33 33 32 33 33 33 34 34 35 36 37 39 40 42 43 45 46 47 48 49 50 50 50 51 51 52 52 51 51 51 50 51 51 51 52 52 53 53 53 54 53 52 52 54 55 54 52 51 50 49 49 46 44 41 36 36 38 38 35 29 25 24 22 19 18 16 13 10 8 6 3 4 5 5
54 53 51 49 47 43 40 38 36 34 34 33 32 31 31 32 32 32 33 32 32 33 33 34 36 37 39 41 42 44 45 46 47 48 49 50 51 51 51 51 52 52 51 51 51 51 53 54 55 55 55 54 55 55 53 51 52 54 55 55 54 53 52 51 51 48 47 45 37 36 41 41 38 33 27 25 24 21 19 17 14 12 9 8 5 4 4 4
53 51 48 45 42 38 36 34 33 32 32 31 31 30 31 31 31 31 31 31 31 31 32 33 35 37 38 39 41 43 44 45 46 47 48 49 50 50 50 51 51 50 50 50 51 51 54 56 57 56 56 57 57 56 54 52 52 53 55 56 55 54 53 52 52 50 49 49 43 39 42 43 40 35 29 27 25 23 20 17 15 13 11 9 7 5 4 3
50 47 44 40 37 35 33 32 31 30 30 30 30 30 29 29 29 29 29 29 29 30 31 33 34 36 37 39 41 42 43 44 45 46 47 47 48 49 49 49 49 49 49 49 50 51 54 56 57 57 58 59 59 57 55 53 53 54 55 57 56 55 55 54 54 52 52 52 49 45 44 44 42 37 33 29 26 25 21 19 17 14 12 10 8 6 5 4
47 43 39 36 33 32 31 30 29 27 27 28 28 28 28 28 28 28 28 28 29 30 32 34 35 37 38 40 41 42 43 44 45 46 46 47 48 48 49 49 50 50 50 50 50 52 54 55 56 58 59 60 61 59 56 55 54 54 56 58 58 57 57 57 56 56 54 53 52 48 45 45 42 39 36 31 28 26 23 22 19 15 13 12 10 8 7 5
44 39 34 32 31 30 29 28 26 25 25 26 26 27 27 27 27 27 28 28 30 31 34 35 37 39 40 42 43 44 45 45 47 47 48 49 49 49 51 52 52 53 53 53 53 54 56 56 56 57 59 61 62 60 58 57 57 56 57 59 59 58 59 59 58 57 55 53 52 49 46 45 42 40 37 32 29 28 26 25 21 17 15 15 13 11 9 7
41 35 30 29 28 27 27 26 25 25 25 26 26 27 27 27 28 28 29 31 33 35 37 38 40 42 43 44 45 46 47 48 49 50 51 52 53 54 55 56 56 56 56 56 56 58 59 59 58 58 59 61 62 61 60 60 60 59 59 60 59 60 60 59 57 56 55 53 51 49 47 46 44 41 38 34 31 30 29 27 23 19 17 17 16 13 11 10
38 31 27 27 26 26 27 27 27 28 28 29 30 30 30 31 32 33 34 36 38 40 41 43 44 45 46 47 48 49 50 51 52 53 55 56 57 58 59 60 60 60 60 61 61 62 62 61 60 60 60 61 63 64 63 64 64 63 61 60 59 60 60 59 58 57 56 54 52 50 48 47 46 42 39 35 33 32 32 28 24 21 19 19 18 16 13 11
35 28 25 26 27 28 29 30 30 31 32 33 34 35 35 36 37 38 39 41 43 44 45 47 48 48 49 50 51 52 53 55 56 57 59 60 61 62 62 63 64 65 65 65 66 67 65 63 62 62 62 64 66 67 67 67 66 64 62 60 59 59 60 59 59 59 58 57 54 51 50 49 48 44 40 37 37 37 35 30 25 22 21 21 20 18 16 13
32 27 26 27 29 30 31 32 33 34 36 37 38 39 39 40 41 42 43 45 46 47 48 48 49 49 50 50 52 53 55 57 59 61 62 64 64 65 66 67 68 69 69 70 71 69 67 65 65 65 67 70 71 69 67 67 67 66 63 61 59 59 60 60 61 61 61 60 57 53 52 51 50 47 44 43 43 41 37 32 27 25 24 24 22 21 18 15
30 27 26 28 30 31 33 34 36 37 39 40 41 42 42 42 43 44 44 45 46 47 48 48 48 49 50 50 50 51 53 54 57 59 61 63 65 66 68 69 70 71 72 74 74 71 68 68 68 69 72 74 74 71 68 69 70 69 66 62 60 59 60 62 64 65 65 64 61 57 53 52 52 50 48 47 45 40 36 34 31 28 27 26 24 22 20 17
29 27 27 29 31 33 35 36 38 40 42 43 43 43 42 42 42 42 43 44 45 46 47 47 48 49 50 49 48 48 49 50 52 54 56 58 60 62 64 66 68 69 72 74 73 71 70 70 72 73 75 76 75 73 71 72 73 70 66 63 61 59 61 64 67 68 67 66 64 60 55 54 54 53 52 49 45 41 39 37 34 32 31 29 27 25 23 20
28 26 28 30 33 35 37 38 41 43 44 44 42 41 40 40 40 40 41 42 44 45 46 47 49 50 50 48 46 45 45 46 48 50 51 53 56 58 60 63 65 67 70 72 71 71 71 72 74 76 76 77 76 75 74 73 73 70 66 64 62 60 62 66 68 69 68 68 67 64 58 55 55 54 53 50 46 45 42 38 36 35 34 32 29 27 25 23
27 26 28 31 34 36 38 40 43 45 44 42 39 38 38 38 38 38 39 41 43 45 47 48 49 49 49 47 44 42 41 41 42 44 45 47 50 52 54 57 61 64 67 69 71 72 73 73 75 77 78 78 77 77 76 76 76 73 69 66 64 63 64 67 70 69 69 68 68 68 61 54 55 55 52 50 48 46 44 41 39 37 36 35 31 29 28 26
26 26 29 32 36 38 40 42 44 44 41 39 37 37 38 38 37 38 39 41 43 44 47 48 49 49 47 44 40 37 34 34 34 35 36 37 39 41 44 48 52 55 59 63 67 71 73 74 76 78 79 79 80 80 80 80 80 77 72 68 67 66 66 68 70 69 68 67 68 70 63 55 56 56 52 50 49 47 46 43 40 38 38 37 34 32 31 29
25 27 30 34 37 39 41 43 43 41 38 37 37 38 38 38 37 37 38 40 42 44 46 49 49 48 45 41 36 32 28 26 25 25 25 27 28 31 34 37 41 44 48 53 58 63 68 73 77 78 79 80 81 83 84 83 81 76 73 71 70 69 67 68 69 67 66 68 68 70 67 59 58 58 54 52 51 49 47 45 42 40 40 40 37 34 33 31
26 29 32 36 38 40 43 43 41 39 38 38 38 38 38 37 37 37 37 39 41 43 46 48 49 48 44 39 33 28 24 22 20 18 19 21 23 25 28 31 33 36 40 44 47 53 60 67 74 78 80 82 83 85 86 84 81 77 75 74 73 71 68 67 69 67 65 67 68 69 69 64 61 59 57 55 53 52 50 46 44 42 42 42 39 36 35 33
28 31 35 37 39 42 43 42 39 37 38 38 38 38 37 37 36 35 36 38 40 42 45 47 49 48 43 37 32 27 23 21 19 16 17 18 19 22 24 26 29 32 37 41 43 48 54 59 67 75 80 83 85 86 86 83 80 78 78 77 75 72 69 68 70 72 69 67 68 69 69 66 64 61 59 58 56 54 52 49 46 45 45 44 40 38 36 34
31 34 37 39 41 43 42 39 37 37 37 37 37 37 37 36 35 34 35 38 39 41 44 46 48 47 42 37 33 28 24 22 19 15 14 16 16 18 21 23 26 30 35 40 43 46 49 53 60 68 77 83 85 86 85 82 81 81 81 79 77 74 72 69 71 75 73 69 68 69 69 67 66 63 60 59 59 56 54 51 49 48 48 46 42 39 38 36
34 36 39 40 42 42 38 35 35 36 36 37 37 37 36 35 34 33 34 37 38 40 43 45 48 47 43 38 34 29 25 23 20 16 12 12 13 14 17 20 23 27 32 38 42 44 47 51 56 62 71 79 84 85 86 85 83 83 81 79 78 76 73 72 72 74 76 73 69 69 70 69 68 67 63 61 61 58 55 52 51 50 50 48 45 42 40 38
37 39 41 41 41 38 34 33 34 35 35 36 36 36 35 34 33 31 33 36 37 39 42 44 47 47 43 38 34 30 25 23 21 18 13 10 9 10 13 17 20 24 30 36 41 43 46 49 53 56 63 73 81 86 87 87 86 85 83 81 80 78 76 74 73 74 77 77 72 70 71 71 70 70 66 63 62 60 57 54 53 52 50 49 47 45 42 40
39 41 42 40 37 34 32 32 33 33 33 34 35 34 34 33 32 30 32 34 36 37 40 43 45 47 44 39 35 31 26 23 21 20 16 11 8 8 10 14 17 21 26 32 38 42 45 48 51 54 60 69 79 85 88 90 89 87 86 85 83 80 77 75 74 75 77 79 76 73 72 72 72 72 69 65 64 62 59 56 55 54 52 50 48 46 44 41
41 42 40 36 33 31 30 30 31 31 32 33 34 33 32 31 30 29 31 33 34 35 38 41 43 46 45 41 36 32 28 24 21 20 19 14 9 6 8 12 16 19 24 29 34 39 43 47 51 57 62 69 77 84 89 91 91 89 88 86 84 80 78 76 74 75 76 77 77 74 73 72 72 73 70 66 65 64 61 58 57 56 54 51 49 48 44 42
41 39 35 31 31 29 29 29 29 30 31 32 32 32 31 30 29 28 29 31 32 33 36 39 42 45 46 43 37 33 29 25 22 19 18 16 11 8 7 10 14 19 23 27 32 37 40 45 51 56 61 68 76 83 89 92 91 90 87 85 83 80 78 76 74 72 73 76 76 75 74 73 72 73 71 66 64 66 64 61 59 58 56 53 51 49 46 43
38 34 29 29 29 28 27 28 28 28 30 31 31 31 30 29 28 27 28 30 30 31 33 36 40 43 45 45 40 34 29 26 23 19 17 15 13 9 8 10 13 17 22 26 31 36 40 45 51 55 59 65 74 83 89 91 90 88 86 84 82 80 79 76 73 71 72 75 76 75 75 75 73 73 72 68 64 66 66 63 60 60 58 56 53 51 48 46
32 29 27 27 27 26 27 27 26 28 30 30 30 30 29 28 27 26 28 30 30 30 31 33 37 40 43 44 42 36 30 26 23 21 18 15 13 10 9 10 13 16 19 24 30 34 38 43 49 53 56 63 72 82 87 89 89 87 85 84 83 81 80 77 73 72 73 74 77 77 77 77 75 73 73 71 65 65 66 65 63 61 60 58 55 53 51 50
28 27 26 26 26 25 26 26 26 27 28 29 29 29 29 28 26 26 27 28 29 29 30 31 34 37 40 42 42 38 32 27 24 22 19 16 13 11 8 9 14 17 19 23 28 32 36 41 45 49 54 61 70 79 85 88 88 87 84 84 84 82 80 77 74 73 74 74 77 79 78 78 76 72 73 74 69 66 66 67 65 63 60 57 54 52 52 52
27 26 26 25 25 25 26 25 25 26 27 28 28 28 28 26 25 25 25 26 28 29 29 30 32 34 37 40 42 40 35 29 24 23 20 17 14 11 8 9 13 18 21 23 27 31 35 40 43 47 53 60 68 77 84 87 88 88 85 82 83 83 80 77 75 74 74 75 77 79 79 79 76 72 73 75 72 68 67 68 68 66 62 57 53 51 51 50
26 26 25 25 25 25 25 24 24 25 25 26 26 26 26 25 24 24 23 23 26 28 28 29 30 32 35 37 40 40 38 33 27 23 22 19 16 13 10 9 12 16 21 23 27 30 35 39 42 46 50 58 65 73 81 86 88 89 87 82 80 82 80 77 75 74 74 75 76 77 78 79 78 74 74 76 74 70 67 67 69 68 65 59 55 52 49 46
25 25 25 24 25 24 23 23 23 24 24 25 24 24 25 25 24 24 23 22 24 27 28 28 28 29 32 35 37 39 39 37 31 25 23 20 17 15 13 11 12 15 20 24 27 30 34 38 42 45 48 54 62 70 78 84 87 88 87 83 80 81 80 77 76 75 75 75 75 77 78 79 79 78 76 77 76 72 68 66 68 70 68 63 58 54 50 45
24 23 23 23 23 23 22 22 22 23 23 23 23 23 24 24 24 25 24 22 23 26 27 28 28 27 29 32 35 37 39 39 35 29 24 22 19 18 16 13 12 14 19 24 27 30 34 38 41 45 48 51 58 67 76 81 84 86 86 83 81 80 80 78 77 76 76 76 76 76 78 79 79 79 79 79 78 76 71 67 67 70 70 66 62 58 54 49
21 21 22 23 23 23 21 21 22 22 22 23 23 23 23 24 26 26 25 24 24 26 27 28 29 27 26 28 31 34 37 38 38 34 27 23 20 19 18 16 15 15 18 23 28 32 35 38 41 46 49 51 55 64 74 79 82 84 86 84 83 82 81 80 79 77 77 77 76 76 78 79 80 80 80 80 80 78 75 70 68 69 71 68 64 61 60 56
Wind_Direction
285 285 285 285 284 283 282 280 279 277 275 272 271 269 269 268 267 267 265 265 264 263 261 260 258 256 254 251 249 247 245 244 243 243 242 242 242 242 241 239 238 238 236 235 235 235 234 233 234 234 235 237 238 237 234 233 233 234 236 234 235 235 233 231 219 221 241 245 297 323 325 328 340 342 345 1 5 358 356 4 14 15 16 16 13 15 18 20
293 294 293 293 292 291 289 287 285 283 281 278 275 272 270 268 266 265 264 263 262 262 262 261 261 259 257 255 252 249 247 245 242 241 241 241 241 241 241 239 238 238 236 235 235 235 234 233 233 233 233 235 236 237 235 232 232 232 231 230 230 231 231 226 219 220 229 239 287 315 319 325 333 330 333 352 3 356 355 3 13 14 15 16 12 13 16 19
296 297 298 297 297 296 295 293 291 289 287 284 281 279 276 272 269 267 264 262 260 260 260 260 260 260 259 258 255 253 250 248 244 241 240 240 240 241 241 240 238 237 236 235 234 234 234 234 233 233 232 233 234 235 235 232 231 231 229 227 227 230 230 226 221 220 223 234 284 313 311 318 324 324 327 346 2 358 355 3 13 13 14 15 12 11 15 18
297 297 297 297 297 296 295 294 293 292 290 288 285 282 280 278 275 272 268 265 261 259 258 257 257 258 258 258 258 256 253 252 248 244 241 239 238 239 240 239 238 237 236 235 234 233 233 233 233 233 232 232 232 233 234 233 231 231 229 226 225 227 230 227 223 223 228 235 270 291 295 321 328 324 323 340 360 359 355 6 13 12 14 14 12 10 13 18
295 296 296 295 295 294 294 293 292 291 290 289 287 285 282 280 278 275 272 269 265 262 259 257 256 255 255 256 256 256 255 254 252 248 244 240 238 238 239 239 238 237 236 234 234 232 231 232 233 233 233 231 231 231 232 232 231 230 228 225 223 224 229 229 224 226 231 238 263 276 282 320 325 319 316 336 358 0 358 9 13 11 13 13 11 9 12 18
294 294 294 294 293 293 292 292 291 290 289 288 286 285 283 281 279 277 275 272 269 266 262 260 258 256 254 253 254 254 254 254 253 251 248 243 239 238 238 238 238 237 236 234 233 232 231 231 232 233 232 231 230 229 230 231 231 230 228 225 221 221 225 228 227 227 232 241 260 276 287 310 312 307 303 333 358 357 357 11 13 10 13 13 12 9 11 18
292 292 292 292 292 292 292 291 290 289 288 286 285 284 283 282 280 278 276 274 271 268 265 262 260 258 255 253 252 252 251 252 251 251 250 247 244 240 238 237 237 237 237 235 233 232 231 231 231 232 232 231 230 229 228 229 230 230 228 225 222 220 221 226 228 227 231 234 248 273 276 284 292 288 287 329 352 348 356 12 13 10 12 13 12 9 11 18
291 291 291 292 292 293 292 292 290 289 287 286 284 283 282 281 279 278 276 275 272 270 267 264 262 260 258 254 252 251 249 249 249 250 251 250 248 244 240 238 236 236 236 236 234 231 230 230 231 232 231 230 230 229 227 227 228 229 228 225 222 220 219 222 226 225 228 220 224 258 255 255 266 264 267 318 337 337 355 15 13 10 11 12 13 10 11 17
292 292 293 294 294 294 294 293 292 290 289 286 284 283 281 280 278 277 276 274 273 271 268 266 263 261 259 256 253 251 249 248 248 247 248 248 248 247 243 239 237 235 235 235 234 232 230 230 231 232 231 230 229 228 227 226 226 227 227 225 222 220 218 220 223 223 225 219 215 231 235 241 249 241 249 303 318 325 352 18 15 10 10 11 14 11 11 17
293 294 295 295 296 296 295 295 294 293 291 288 286 284 282 280 278 277 275 274 272 271 269 266 264 262 260 257 255 253 251 249 247 246 246 246 246 246 246 242 239 236 234 234 234 233 231 230 230 231 231 229 228 227 227 225 225 226 226 224 221 219 218 218 220 220 223 222 217 222 231 237 236 229 244 297 301 310 348 13 13 11 11 11 13 13 12 17
295 296 296 297 297 297 297 297 296 295 293 290 288 285 283 281 279 277 275 273 271 270 268 266 264 262 260 258 256 254 252 249 248 246 245 244 244 245 245 244 242 238 235 234 234 233 232 230 229 230 230 229 227 226 226 225 224 224 225 223 220 217 217 217 219 220 221 222 221 223 229 229 225 224 234 275 274 292 344 0 9 12 13 11 12 14 14 18
296 297 297 297 298 298 299 299 297 296 294 291 288 286 283 281 279 277 275 273 271 269 267 266 264 262 260 259 256 254 252 251 249 247 245 244 243 243 243 244 243 241 237 234 233 232 232 231 229 229 230 228 226 226 225 224 224 223 224 222 219 216 215 216 215 216 215 216 221 224 225 222 221 222 228 256 253 260 322 332 356 14 18 13 12 15 15 18
298 298 298 298 299 299 300 299 298 296 294 292 290 287 284 282 280 278 275 273 271 269 267 265 263 261 260 259 257 255 253 252 250 249 247 245 243 242 242 242 242 242 239 236 234 232 231 231 230 229 229 228 226 225 224 223 222 222 223 221 217 214 213 214 212 212 211 205 208 218 222 220 221 225 232 241 234 246 287 295 327 11 23 15 14 15 17 20
299 299 299 299 299 300 300 299 298 296 295 293 290 288 286 283 281 278 276 274 271 269 267 265 263 261 260 259 258 256 254 252 251 250 248 246 244 243 241 240 240 240 239 237 235 232 230 229 229 229 229 228 227 225 223 222 221 221 221 220 216 211 211 214 210 208 209 200 196 206 216 219 224 228 228 228 228 244 260 263 294 3 28 20 17 16 18 21
301 301 300 300 300 301 300 299 298 297 296 294 292 289 287 284 282 280 277 274 271 269 266 264 263 261 259 258 257 256 254 252 251 250 249 247 245 243 242 240 239 238 237 236 235 233 230 227 227 228 228 228 227 224 223 222 220 219 219 219 215 208 207 212 212 211 209 199 197 204 212 220 225 222 220 225 230 240 246 245 261 342 33 27 23 18 19 23
302 302 302 302 302 302 301 301 299 298 297 295 293 290 288 286 283 281 278 275 271 268 265 263 261 260 258 257 257 256 254 252 251 251 250 248 247 245 243 241 239 237 235 234 233 232 230 227 226 226 227 228 227 224 223 222 220 218 217 217 215 207 203 205 211 213 206 198 200 206 213 220 221 217 216 222 231 238 237 228 231 249 48 35 30 23 21 25
304 304 303 303 303 303 303 302 301 299 298 295 293 291 288 286 284 282 279 275 271 267 265 262 260 258 257 256 256 255 254 252 250 250 250 249 247 246 243 242 240 238 234 232 231 230 229 227 224 225 226 227 227 225 223 222 219 216 215 216 215 209 204 203 206 209 203 196 196 202 210 215 216 216 216 220 229 233 227 216 214 203 135 48 39 30 23 28
305 305 305 306 305 305 304 303 302 300 298 296 293 291 289 287 285 282 279 275 271 268 264 261 259 257 256 255 254 254 254 252 250 249 249 249 248 246 245 243 241 239 235 231 230 228 227 225 223 223 225 226 226 225 223 221 217 215 214 215 215 211 207 206 207 208 204 198 193 198 208 213 215 214 215 221 228 229 223 210 204 196 180 111 55 40 29 32
307 307 307 308 307 306 305 303 302 301 299 296 294 292 290 288 285 283 279 276 272 268 265 262 259 257 256 255 254 254 253 253 251 249 249 248 248 247 246 244 242 240 236 232 229 227 225 224 221 221 223 224 225 224 222 219 216 214 213 213 214 211 208 208 209 208 205 202 197 199 206 213 214 211 216 222 224 229 228 212 200 195 181 161 85 54 37 35
308 308 309 309 308 306 305 304 303 301 299 297 295 293 291 289 287 284 281 278 274 270 266 263 260 258 256 255 254 253 253 252 251 249 248 247 246 246 245 244 242 240 238 234 230 227 225 222 220 219 220 223 224 224 222 218 215 214 213 212 212 212 209 208 209 206 203 205 205 204 207 212 213 210 212 218 220 227 228 212 200 195 178 169 128 74 52 40
309 310 310 309 308 307 306 305 304 302 301 298 296 295 292 290 288 286 283 280 276 272 268 265 262 259 257 256 254 253 252 251 251 249 248 247 246 244 243 243 242 240 238 235 231 228 225 222 220 218 218 221 224 225 221 217 216 214 213 212 211 211 209 207 208 205 201 202 207 209 211 213 214 212 210 213 217 223 223 211 199 193 178 172 169 108 77 47
311 311 311 310 309 308 308 306 305 304 303 302 300 297 294 292 290 287 285 282 278 274 271 268 265 261 259 257 256 255 253 251 250 249 247 246 245 243 242 241 241 239 237 235 232 229 227 223 221 218 217 220 224 224 221 218 216 214 213 212 211 210 209 207 207 204 200 199 202 208 212 214 214 213 212 212 214 216 219 212 197 191 181 179 191 151 108 69
312 313 312 311 310 309 309 308 308 308 307 306 303 301 298 295 292 289 287 284 281 278 275 271 268 265 262 260 258 256 254 252 251 249 247 245 244 242 241 239 238 237 235 233 231 229 228 225 221 218 217 219 222 224 221 218 216 215 214 212 211 209 208 207 206 204 201 199 200 204 209 211 212 213 211 210 212 211 216 216 199 191 185 185 200 181 138 109
313 314 313 312 311 311 311 311 311 312 312 310 308 305 301 299 296 293 291 288 286 283 279 275 272 269 266 263 261 258 256 253 252 250 247 245 243 240 239 237 236 235 233 232 230 229 229 226 221 218 218 218 221 223 221 219 217 215 214 212 211 209 207 206 206 204 202 201 202 204 206 209 211 213 210 208 211 210 214 218 204 191 188 189 205 198 163 141
315 315 313 312 313 313 313 313 314 316 316 314 312 309 306 304 301 299 296 293 290 287 283 280 278 275 271 267 264 261 259 256 253 251 248 246 243 240 238 237 235 234 233 231 230 230 229 226 222 220 218 218 220 221 221 220 218 216 215 212 210 208 207 206 205 204 203 202 203 205 208 211 213 215 210 206 209 210 212 216 206 196 192 189 201 204 180 162
316 315 314 315 316 316 317 318 320 321 320 318 315 313 311 309 307 304 301 297 294 290 286 284 282 279 276 272 269 265 261 258 255 252 249 247 244 242 240 239 237 235 234 233 232 232 230 227 223 221 219 218 218 219 219 220 218 217 215 212 209 207 206 206 204 204 203 202 203 205 208 212 213 214 210 206 207 207 209 211 205 202 197 191 200 206 191 176
315 313 314 318 319 320 322 325 326 325 323 321 318 317 314 313 310 307 304 300 296 293 290 287 284 281 278 275 272 268 265 261 257 254 251 248 246 244 242 241 240 239 237 235 235 234 231 228 225 223 220 218 218 217 217 218 218 217 215 212 209 207 206 205 204 204 203 202 203 203 206 209 211 211 210 206 204 205 206 206 204 205 200 195 201 206 200 185
313 310 313 317 318 321 323 325 325 324 322 320 318 316 315 312 310 306 304 300 297 294 292 289 286 283 280 276 273 270 267 263 260 256 253 250 248 246 245 244 243 242 240 238 237 234 231 228 226 224 223 221 219 217 216 217 217 216 214 211 210 208 205 204 204 204 203 200 200 200 202 207 209 209 209 205 202 202 203 202 204 206 204 199 201 207 206 194
309 305 308 312 314 318 320 321 321 320 319 318 316 315 313 311 308 305 303 300 298 295 293 291 288 285 282 279 275 272 268 265 262 259 256 253 250 248 247 246 244 244 242 240 238 235 230 228 225 224 223 222 222 218 215 216 217 216 213 211 210 208 204 203 203 204 202 199 198 197 199 205 209 208 206 203 200 200 201 202 203 206 205 201 200 206 208 201
305 301 303 308 311 314 316 317 318 317 317 316 315 313 311 309 306 304 303 301 299 298 296 295 293 291 287 283 279 275 271 267 263 260 257 255 252 250 248 247 245 244 243 241 239 235 230 227 224 222 221 221 222 218 215 216 217 216 214 210 210 208 204 202 203 204 203 199 197 196 198 204 208 207 204 203 202 201 202 204 206 207 206 202 200 206 210 206
301 298 301 305 309 312 314 315 315 315 315 314 313 311 310 308 306 305 304 303 303 302 301 301 300 298 294 290 286 281 276 271 266 262 259 256 253 251 249 247 245 243 242 241 239 235 231 227 224 221 220 220 220 218 216 216 215 214 213 210 209 207 203 202 204 204 203 200 197 196 197 202 207 206 203 204 204 202 202 206 208 208 207 203 200 204 210 208
299 296 300 305 309 311 313 314 314 314 314 313 313 311 309 308 307 307 307 306 306 306 306 306 305 303 300 296 291 286 280 274 269 264 260 257 253 251 248 246 244 242 241 239 237 234 230 227 223 221 219 219 219 217 216 216 215 214 212 209 207 206 204 203 204 205 203 200 197 197 196 198 205 206 204 205 205 204 204 207 208 207 207 203 198 201 207 208
297 296 300 304 308 311 312 313 314 315 314 314 313 312 311 310 310 310 310 310 310 310 310 310 310 308 306 302 296 289 282 275 270 265 261 257 254 251 248 245 243 241 239 237 235 232 229 226 223 220 217 216 217 217 216 215 214 213 211 209 207 206 205 204 204 205 204 201 198 198 197 197 201 205 204 204 206 208 208 208 208 207 206 203 198 200 206 208
296 298 301 305 308 310 312 314 315 315 315 315 315 314 314 313 313 313 313 313 313 314 313 314 315 314 311 307 301 293 285 277 271 265 261 257 254 251 248 245 242 240 238 236 233 230 227 223 221 218 215 214 213 214 215 214 213 210 208 208 207 206 206 205 204 204 204 203 200 199 199 198 199 202 204 203 206 210 210 209 208 207 206 205 199 198 204 208
297 300 303 306 309 311 312 314 315 315 315 315 315 315 315 315 315 315 315 315 316 317 318 319 320 320 318 314 307 299 291 282 274 268 263 259 255 250 247 244 241 238 236 233 231 228 225 222 219 216 213 211 210 211 213 213 212 208 206 205 206 206 206 205 203 203 204 203 201 200 200 200 200 201 202 202 204 209 210 209 209 207 206 207 202 198 201 206
300 303 306 308 309 311 313 315 315 314 314 314 315 315 316 316 316 317 317 318 319 321 323 325 326 327 325 320 314 307 300 292 284 277 269 261 255 250 245 240 237 233 231 229 228 226 223 220 217 214 212 210 208 209 211 212 210 207 205 204 205 206 206 205 203 202 203 204 202 201 201 200 200 200 202 201 202 206 208 208 209 207 207 208 205 200 200 205
304 306 307 308 309 311 313 314 314 313 313 314 315 315 316 317 318 318 319 320 322 325 329 330 332 333 331 328 324 319 312 305 299 290 276 264 256 249 242 235 231 227 223 221 221 221 220 218 215 212 209 208 207 208 210 211 208 205 204 204 204 205 205 205 203 201 203 204 202 201 201 201 199 200 201 201 201 204 206 206 207 207 206 207 205 200 199 203
306 307 307 308 310 311 313 313 313 313 313 314 315 315 317 318 319 319 320 321 325 330 334 336 338 339 337 336 335 330 323 317 312 302 283 268 259 248 239 230 224 221 217 213 212 214 215 214 213 210 207 207 206 207 209 210 207 205 204 203 202 203 203 204 204 201 202 203 202 201 202 201 200 199 201 201 200 202 203 203 204 206 206 206 204 201 199 202
306 307 307 308 310 311 312 312 312 313 314 315 314 315 317 318 319 320 320 323 328 334 337 340 342 343 343 344 344 339 332 324 317 309 287 271 262 249 237 226 219 216 213 208 207 208 209 209 211 209 206 205 205 206 207 208 206 205 205 203 202 202 202 203 204 202 201 201 201 201 202 201 199 199 200 201 200 201 202 202 203 205 208 207 204 202 201 201
306 306 307 309 310 310 311 311 312 313 314 315 314 315 317 318 319 320 321 325 331 337 341 344 347 348 348 349 350 346 339 330 323 316 298 277 265 251 236 223 215 212 210 207 204 203 204 206 207 207 205 204 203 203 205 205 205 205 204 203 202 202 201 202 204 203 202 201 200 200 201 200 199 199 200 200 200 200 200 202 203 205 208 209 205 202 202 202
306 306 307 309 309 308 309 310 312 313 314 314 314 316 317 318 319 320 321 326 333 339 344 347 350 352 352 353 355 352 344 337 330 324 312 288 267 253 235 221 212 209 208 205 203 200 200 203 205 204 204 203 200 200 202 203 204 204 203 202 202 202 201 202 203 203 202 201 199 199 201 200 199 200 201 200 199 199 199 202 204 205 207 210 209 205 202 202
305 305 307 308 307 307 309 311 312 313 315 315 315 316 317 318 319 319 321 327 334 341 347 350 353 355 356 356 358 355 350 345 338 329 322 306 275 256 237 220 211 208 206 204 201 199 197 199 202 202 201 201 199 198 199 201 202 203 203 201 201 201 201 202 202 203 203 201 199 199 200 200 199 201 201 200 199 199 199 201 205 205 206 210 212 209 204 202
304 304 306 306 305 306 309 311 312 314 316 317 317 316 317 318 319 319 320 327 335 342 347 351 354 358 359 359 359 358 354 350 345 336 328 320 300 268 241 221 210 204 204 203 200 197 196 197 200 201 199 198 198 197 197 200 201 202 202 201 201 200 201 202 203 203 203 202 200 200 200 200 200 201 201 201 200 199 200 202 204 206 206 208 211 211 206 204
303 303 305 304 303 306 310 310 312 316 319 319 318 317 317 318 319 318 320 327 334 341 347 352 356 360 2 2 2 0 357 352 349 343 334 327 313 286 254 226 214 205 201 200 199 196 195 196 200 203 200 197 196 196 196 199 201 201 202 201 200 200 201 203 203 203 203 203 202 201 200 201 201 201 200 200 201 200 201 203 204 206 207 207 209 210 207 206
301 302 303 302 303 307 309 309 313 318 320 320 318 317 317 319 320 319 320 326 332 339 347 352 356 0 3 4 4 2 359 354 350 347 339 332 322 300 267 233 220 213 203 199 199 197 196 197 199 202 201 197 196 197 196 198 200 201 201 201 200 201 202 202 202 203 203 204 204 203 201 201 202 202 201 200 200 201 202 203 204 206 208 208 208 208 207 207
299 300 300 300 302 306 306 309 314 317 319 320 317 317 318 320 322 321 321 326 330 336 346 352 356 359 3 5 5 4 1 356 351 348 343 335 327 315 286 243 222 217 210 203 200 200 199 199 200 202 201 197 197 198 197 197 199 200 201 201 200 201 202 202 201 203 203 203 205 205 203 202 202 203 202 201 200 201 202 203 204 205 208 208 208 209 207 206
298 298 299 299 302 304 305 309 314 317 319 319 318 319 320 322 325 323 324 327 327 332 343 349 354 358 1 4 6 5 3 358 351 347 345 338 328 321 302 260 229 215 209 206 203 201 200 200 201 202 201 198 198 198 197 197 198 199 200 201 200 201 202 202 201 203 203 203 205 205 203 202 202 203 202 201 200 201 202 203 204 205 208 208 209 211 211 209
297 298 298 299 301 302 304 309 313 316 319 320 321 322 323 325 328 326 327 329 325 328 339 346 351 355 359 2 5 5 4 1 353 346 344 339 329 318 299 270 244 223 210 206 204 202 202 202 202 202 202 200 199 198 197 197 198 199 200 200 200 201 202 202 202 204 204 204 205 205 204 203 202 203 203 202 201 200 202 204 205 206 207 206 206 210 214 214
296 298 299 300 300 302 304 309 314 317 319 321 326 329 328 329 329 327 330 330 324 325 335 341 347 353 356 359 3 4 5 2 356 348 342 336 328 317 297 268 249 232 217 209 207 204 203 204 204 203 203 202 200 199 199 198 199 200 201 200 200 200 201 202 203 204 205 206 206 205 205 205 204 204 204 202 202 202 202 204 206 207 207 204 202 205 210 213
297 300 300 301 302 303 305 309 314 316 318 322 329 335 337 337 332 327 330 331 324 324 330 336 342 349 353 356 359 2 4 4 359 352 344 335 324 316 305 278 251 233 221 213 210 207 205 205 205 204 203 203 202 201 200 200 200 201 202 201 200 200 201 203 204 205 206 207 207 206 206 205 205 206 204 204 204 204 203 203 206 208 207 204 201 201 203 208
299 302 304 304 305 306 308 310 312 314 316 320 327 336 343 345 341 333 331 331 327 325 328 332 337 344 351 353 356 359 1 3 2 356 348 338 323 313 306 290 265 239 223 215 212 211 208 206 206 204 203 203 204 203 201 201 201 202 203 203 202 200 201 203 205 206 208 208 207 206 206 206 206 206 205 205 206 206 206 204 205 208 208 205 203 201 199 203
303 306 307 308 308 309 309 308 308 310 312 315 321 330 337 343 344 340 336 333 329 326 328 330 332 338 347 351 353 356 358 360 1 359 353 343 327 313 303 293 278 255 233 220 215 214 211 208 207 205 203 203 205 205 203 202 202 203 203 203 203 202 202 203 205 207 209 209 208 207 207 206 207 207 206 205 206 207 207 205 204 206 208 207 206 203 201 202
Height
10932 10932 10931 10931 10930 10930 10930 10929 10929 10928 10928 10928 10928 10927 10927 10927 10927 10927 10927 10926 10926 10926 10926 10926 10926 10927 10927 10927 10928 10929 10930 10931 10932 10934 10935 10937 10938 10940 10942 10945 10948 10950 10953 10955 10957 10958 10961 10963 10966 10968 10970 10972 10974 10977 10980 10982 10984 10986 10987 10989 10990 10991 10991 10992 10994 10994 10994 10994 10993 10993 10993 10993 10993 10992 10992 10990 10990 10989 10988 10986 10984 10983 10981 10979 10977 10975 10973 10971
10930 10930 10929 10929 10929 10928 10928 10927 10927 10926 10926 10925 10925 10925 10925 10924 10924 10924 10924 10924 10924 10924 10924 10924 10924 10924 10924 10925 10926 10926 10927 10927 10929 10930 10932 10933 10935 10936 10937 10941 10944 10946 10948 10951 10953 10955 10958 10960 10963 10965 10967 10970 10972 10974 10977 10980 10982 10984 10986 10987 10988 10989 10990 10992 10993 10993 10993 10993 10993 10993 10992 10992 10992 10992 10992 10991 10990 10990 10989 10987 10986 10984 10983 10980 10978 10976 10974 10973
10929 10928 10928 10927 10927 10926 10926 10925 10924 10924 10923 10923 10922 10922 10921 10921 10921 10921 10921 10920 10921 10921 10921 10921 10921 10921 10922 10922 10923 10924 10924 10924 10925 10927 10928 10930 10932 10932 10934 10937 10939 10941 10944 10946 10949 10951 10955 10957 10959 10962 10964 10967 10969 10972 10975 10977 10980 10982 10984 10985 10987 10988 10989 10991 10992 10993 10993 10993 10993 10993 10992 10992 10992 10992 10992 10992 10990 10990 10990 10988 10987 10985 10984 10982 10979 10977 10975 10974
10927 10926 10926 10925 10924 10924 10923 10923 10922 10921 10920 10920 10919 10919 10918 10918 10917 10917 10917 10917 10917 10918 10918 10918 10918 10918 10919 10919 10920 10921 10921 10922 10922 10924 10926 10927 10928 10929 10930 10932 10935 10937 10940 10942 10945 10948 10951 10954 10956 10959 10961 10964 10966 10969 10972 10975 10977 10980 10982 10984 10985 10986 10987 10989 10991 10992 10992 10992 10992 10993 10993 10992 10992 10992 10993 10992 10991 10991 10991 10989 10988 10986 10985 10983 10981 10979 10977 10975
10925 10925 10924 10923 10922 10921 10921 10920 10919 10918 10917 10917 10916 10915 10915 10914 10914 10913 10913 10913 10913 10914 10914 10915 10915 10915 10916 10916 10917 10917 10918 10918 10919 10920 10922 10924 10925 10926 10927 10928 10931 10933 10936 10938 10941 10944 10947 10950 10953 10955 10957 10961 10964 10966 10969 10971 10974 10977 10980 10982 10984 10985 10985 10988 10990 10991 10991 10991 10992 10992 10993 10992 10991 10992 10993 10992 10991 10991 10992 10990 10988 10987 10985 10984 10982 10980 10978 10976
10923 10922 10922 10921 10920 10919 10918 10917 10916 10915 10914 10913 10912 10911 10911 10910 10910 10909 10909 10909 10909 10910 10910 10911 10911 10911 10912 10913 10913 10914 10914 10914 10915 10917 10918 10920 10921 10923 10924 10925 10927 10929 10932 10934 10937 10940 10943 10947 10949 10951 10954 10957 10960 10963 10965 10968 10971 10974 10977 10980 10981 10983 10984 10986 10989 10990 10990 10991 10992 10992 10992 10992 10991 10992 10993 10993 10992 10992 10992 10990 10989 10989 10987 10985 10983 10981 10979 10978
10921 10920 10919 10918 10917 10916 10915 10914 10913 10912 10911 10910 10909 10907 10907 10906 10905 10905 10904 10904 10904 10905 10906 10906 10906 10907 10908 10909 10909 10910 10910 10910 10912 10913 10914 10916 10918 10919 10921 10922 10923 10926 10927 10930 10933 10936 10940 10943 10945 10947 10950 10953 10956 10959 10962 10965 10968 10971 10974 10977 10978 10981 10982 10984 10987 10988 10989 10990 10991 10991 10991 10992 10991 10992 10993 10992 10992 10992 10992 10991 10990 10990 10988 10986 10985 10982 10980 10979
10918 10917 10916 10915 10914 10913 10912 10910 10909 10908 10907 10906 10904 10903 10902 10901 10901 10900 10900 10899 10900 10900 10901 10901 10902 10902 10903 10903 10904 10905 10905 10906 10908 10909 10910 10912 10913 10915 10917 10918 10920 10922 10923 10925 10928 10932 10936 10939 10941 10943 10946 10949 10952 10955 10959 10962 10965 10969 10971 10974 10976 10979 10980 10982 10984 10986 10987 10987 10988 10989 10989 10990 10991 10992 10992 10992 10992 10992 10992 10992 10991 10991 10989 10988 10986 10984 10981 10979
10915 10914 10913 10912 10910 10909 10908 10907 10905 10904 10902 10901 10900 10899 10898 10897 10896 10895 10895 10895 10895 10895 10895 10896 10897 10897 10897 10898 10899 10900 10900 10902 10904 10905 10906 10907 10908 10910 10912 10914 10916 10918 10919 10921 10924 10929 10933 10936 10937 10939 10941 10944 10948 10952 10956 10959 10963 10966 10968 10971 10974 10976 10978 10980 10982 10983 10984 10985 10986 10986 10986 10988 10990 10991 10991 10991 10991 10992 10992 10992 10992 10991 10990 10989 10987 10985 10982 10980
10912 10910 10909 10908 10906 10905 10904 10902 10901 10899 10898 10896 10895 10894 10893 10892 10891 10890 10890 10889 10889 10890 10890 10891 10891 10892 10892 10892 10893 10894 10895 10897 10899 10901 10902 10903 10904 10905 10907 10909 10911 10914 10916 10918 10921 10925 10929 10932 10933 10935 10937 10940 10944 10948 10952 10956 10960 10963 10965 10968 10971 10973 10975 10978 10980 10982 10983 10983 10984 10985 10986 10988 10989 10990 10990 10990 10991 10992 10992 10992 10992 10991 10990 10989 10988 10986 10984 10981
10909 10907 10905 10904 10902 10901 10899 10897 10896 10894 10893 10891 10890 10889 10888 10886 10886 10885 10884 10884 10884 10884 10884 10885 10886 10886 10886 10886 10888 10889 10890 10893 10894 10896 10897 10898 10899 10901 10902 10904 10907 10910 10912 10915 10919 10922 10925 10927 10930 10932 10933 10936 10941 10944 10947 10952 10956 10960 10962 10965 10968 10971 10973 10976 10978 10980 10980 10981 10982 10983 10985 10987 10988 10988 10989 10990 10991 10992 10992 10993 10993 10992 10991 10989 10988 10987 10985 10983
10905 10903 10902 10900 10898 10896 10894 10893 10891 10889 10887 10886 10885 10883 10882 10881 10880 10880 10879 10879 10878 10878 10879 10879 10880 10880 10880 10880 10881 10883 10885 10888 10889 10890 10892 10893 10895 10896 10897 10899 10902 10905 10909 10912 10916 10919 10921 10923 10926 10928 10928 10932 10936 10940 10943 10948 10952 10956 10959 10962 10965 10968 10971 10974 10976 10977 10977 10979 10980 10981 10984 10985 10986 10987 10988 10989 10990 10991 10992 10993 10993 10992 10991 10990 10989 10988 10986 10984
10902 10900 10897 10895 10894 10892 10890 10888 10886 10884 10882 10880 10879 10878 10876 10875 10875 10874 10873 10873 10873 10873 10873 10873 10874 10874 10874 10874 10875 10878 10880 10882 10884 10885 10886 10888 10889 10891 10892 10894 10897 10900 10905 10908 10912 10915 10917 10920 10922 10923 10924 10928 10931 10935 10939 10943 10948 10952 10955 10958 10963 10966 10968 10970 10973 10974 10975 10977 10978 10980 10982 10983 10985 10986 10987 10988 10990 10991 10992 10993 10993 10993 10992 10991 10990 10989 10987 10985
10897 10895 10893 10891 10889 10887 10885 10882 10880 10878 10876 10874 10873 10871 10870 10869 10868 10868 10867 10867 10867 10867 10867 10867 10867 10868 10868 10869 10870 10872 10874 10876 10878 10879 10880 10881 10883 10884 10886 10888 10891 10895 10900 10904 10907 10910 10913 10915 10917 10918 10921 10924 10926 10930 10934 10938 10943 10947 10951 10955 10960 10963 10964 10966 10970 10971 10973 10976 10977 10978 10980 10981 10983 10985 10986 10988 10989 10990 10992 10993 10993 10993 10992 10992 10991 10989 10988 10986
10893 10890 10888 10886 10884 10882 10879 10877 10874 10872 10870 10868 10866 10864 10863 10862 10861 10861 10861 10861 10861 10861 10861 10861 10861 10862 10863 10863 10864 10866 10868 10871 10872 10872 10874 10875 10876 10878 10880 10882 10886 10890 10894 10898 10901 10904 10907 10910 10912 10915 10918 10919 10921 10925 10929 10933 10938 10942 10947 10951 10956 10960 10961 10963 10967 10969 10972 10975 10975 10976 10977 10979 10981 10983 10985 10987 10988 10990 10991 10992 10993 10992 10992 10992 10991 10990 10989 10988
10888 10885 10883 10881 10879 10876 10873 10871 10868 10866 10863 10861 10859 10857 10856 10855 10855 10854 10855 10855 10854 10854 10854 10855 10855 10856 10856 10857 10857 10859 10862 10865 10866 10866 10867 10869 10870 10872 10874 10877 10880 10884 10889 10893 10896 10899 10902 10905 10909 10911 10912 10913 10916 10920 10924 10928 10932 10937 10942 10947 10951 10956 10959 10960 10962 10965 10969 10972 10973 10974 10976 10977 10979 10981 10983 10985 10987 10989 10991 10992 10993 10993 10992 10992 10991 10991 10990 10989
10883 10880 10877 10875 10873 10870 10867 10864 10861 10859 10856 10854 10852 10850 10850 10849 10848 10848 10848 10848 10847 10847 10847 10848 10849 10849 10850 10850 10851 10853 10855 10858 10860 10860 10861 10863 10864 10866 10868 10871 10874 10878 10883 10887 10890 10893 10896 10901 10904 10906 10907 10909 10912 10915 10918 10921 10925 10932 10939 10944 10948 10951 10955 10957 10957 10960 10966 10969 10971 10973 10974 10976 10978 10980 10982 10984 10986 10988 10990 10992 10993 10993 10993 10992 10992 10992 10991 10989
10877 10874 10872 10869 10867 10864 10860 10858 10855 10852 10850 10847 10845 10844 10843 10843 10842 10841 10841 10841 10840 10840 10840 10841 10842 10843 10844 10844 10845 10846 10848 10850 10854 10854 10855 10856 10858 10859 10862 10865 10868 10871 10876 10881 10883 10886 10890 10895 10899 10901 10903 10905 10906 10908 10910 10914 10922 10931 10937 10941 10944 10947 10951 10953 10955 10958 10963 10967 10969 10971 10973 10974 10976 10979 10981 10983 10985 10987 10989 10991 10993 10993 10993 10993 10992 10992 10991 10990
10872 10869 10866 10864 10860 10857 10854 10851 10849 10846 10843 10841 10839 10838 10838 10837 10836 10835 10835 10834 10834 10834 10834 10835 10836 10836 10837 10838 10839 10840 10841 10843 10846 10848 10849 10850 10852 10853 10855 10858 10861 10865 10869 10873 10877 10880 10885 10890 10894 10897 10898 10898 10898 10899 10903 10911 10921 10927 10931 10935 10938 10942 10946 10949 10953 10957 10962 10966 10968 10969 10971 10973 10975 10977 10979 10981 10983 10986 10988 10991 10992 10993 10993 10993 10992 10992 10991 10991
10867 10864 10861 10858 10854 10851 10848 10845 10843 10840 10838 10836 10834 10833 10832 10832 10831 10830 10829 10829 10828 10828 10828 10829 10829 10830 10831 10832 10833 10834 10835 10836 10838 10841 10842 10843 10845 10847 10849 10851 10854 10858 10862 10866 10870 10875 10879 10884 10888 10890 10890 10890 10891 10893 10900 10910 10917 10920 10924 10929 10933 10937 10942 10946 10950 10955 10961 10965 10965 10966 10969 10971 10973 10975 10977 10979 10982 10985 10987 10990 10991 10992 10993 10993 10993 10992 10992 10992
10862 10859 10856 10852 10848 10845 10843 10840 10837 10835 10833 10831 10830 10829 10828 10827 10826 10825 10824 10823 10823 10823 10823 10823 10824 10824 10825 10825 10826 10827 10828 10830 10831 10833 10834 10836 10838 10840 10842 10844 10846 10850 10854 10859 10864 10868 10872 10876 10879 10880 10882 10884 10887 10891 10898 10906 10911 10915 10919 10924 10928 10933 10938 10943 10946 10951 10957 10960 10961 10963 10966 10969 10971 10973 10975 10978 10980 10983 10986 10988 10990 10992 10993 10993 10993 10993 10993 10993
10857 10854 10850 10847 10843 10840 10838 10835 10833 10831 10829 10827 10825 10825 10824 10822 10822 10820 10819 10819 10818 10818 10818 10818 10818 10818 10819 10819 10820 10820 10821 10823 10824 10826 10828 10829 10830 10833 10835 10837 10839 10843 10848 10852 10857 10860 10863 10866 10869 10873 10878 10881 10883 10887 10894 10901 10906 10910 10915 10919 10923 10928 10934 10939 10942 10948 10953 10955 10957 10960 10963 10966 10969 10972 10974 10976 10979 10982 10984 10987 10989 10991 10992 10993 10993 10994 10994 10994
10852 10849 10845 10841 10839 10836 10834 10831 10829 10827 10825 10823 10822 10821 10820 10818 10817 10816 10815 10814 10814 10814 10814 10813 10813 10812 10813 10814 10814 10814 10815 10816 10817 10818 10820 10822 10823 10825 10828 10830 10833 10836 10841 10844 10848 10852 10854 10856 10862 10869 10873 10876 10878 10882 10889 10896 10901 10905 10909 10913 10918 10923 10930 10935 10939 10944 10948 10950 10953 10956 10959 10963 10967 10970 10973 10975 10978 10980 10983 10985 10987 10989 10992 10993 10993 10994 10995 10994
10848 10844 10840 10837 10835 10832 10830 10828 10825 10823 10821 10819 10818 10817 10816 10815 10813 10812 10812 10811 10810 10810 10809 10808 10808 10807 10807 10807 10807 10808 10808 10810 10811 10811 10813 10815 10816 10818 10820 10823 10826 10829 10833 10837 10841 10844 10845 10850 10858 10864 10867 10871 10874 10878 10885 10891 10895 10899 10903 10907 10913 10919 10925 10930 10935 10939 10943 10946 10949 10952 10955 10959 10964 10967 10970 10973 10976 10979 10981 10983 10986 10988 10991 10992 10993 10994 10995 10995
10843 10840 10836 10834 10831 10829 10827 10824 10822 10820 10818 10816 10814 10813 10812 10811 10810 10809 10808 10807 10807 10806 10804 10804 10803 10802 10802 10801 10801 10801 10802 10803 10803 10804 10806 10808 10809 10811 10813 10816 10818 10821 10825 10829 10833 10836 10838 10844 10852 10857 10861 10865 10869 10874 10881 10885 10889 10893 10897 10901 10908 10913 10919 10924 10929 10934 10938 10942 10946 10950 10953 10956 10961 10965 10968 10972 10975 10977 10979 10982 10984 10987 10989 10992 10993 10994 10995 10995
10839 10836 10833 10831 10828 10826 10824 10821 10819 10817 10815 10813 10811 10810 10809 10808 10807 10805 10805 10804 10803 10802 10800 10799 10798 10797 10796 10795 10794 10794 10794 10795 10795 10797 10799 10800 10802 10804 10805 10807 10810 10813 10817 10821 10825 10828 10831 10837 10844 10849 10854 10859 10863 10870 10875 10878 10883 10887 10890 10896 10902 10908 10913 10919 10925 10931 10935 10940 10944 10947 10950 10954 10959 10963 10966 10970 10973 10975 10978 10980 10982 10985 10988 10991 10992 10993 10995 10995
10835 10833 10830 10828 10826 10823 10821 10819 10817 10815 10813 10810 10809 10807 10806 10805 10803 10802 10800 10799 10798 10797 10795 10794 10793 10791 10790 10788 10787 10786 10786 10786 10787 10789 10790 10791 10793 10795 10796 10798 10801 10804 10808 10813 10816 10819 10823 10829 10837 10843 10848 10852 10857 10863 10867 10871 10874 10878 10883 10891 10897 10902 10908 10916 10924 10930 10933 10938 10942 10944 10947 10951 10955 10959 10964 10968 10971 10974 10975 10978 10980 10983 10986 10989 10991 10992 10994 10995
10832 10829 10828 10825 10823 10821 10819 10817 10814 10812 10810 10808 10806 10805 10803 10801 10799 10797 10796 10794 10792 10791 10789 10787 10785 10783 10782 10781 10780 10779 10778 10777 10778 10778 10780 10781 10783 10785 10787 10789 10792 10795 10798 10802 10805 10807 10814 10823 10831 10837 10842 10847 10850 10853 10858 10862 10865 10870 10878 10887 10893 10899 10906 10914 10920 10925 10929 10933 10936 10940 10943 10947 10951 10956 10961 10966 10969 10971 10973 10976 10979 10982 10984 10987 10989 10991 10993 10994
10828 10826 10824 10822 10820 10818 10816 10814 10812 10809 10807 10805 10803 10801 10799 10797 10795 10793 10791 10788 10786 10784 10782 10780 10777 10775 10773 10772 10770 10769 10768 10767 10767 10767 10768 10769 10771 10774 10776 10778 10781 10783 10786 10791 10792 10797 10806 10815 10823 10830 10836 10839 10839 10843 10850 10854 10859 10867 10875 10883 10889 10896 10903 10910 10915 10920 10924 10927 10931 10935 10939 10943 10948 10953 10959 10963 10966 10967 10970 10974 10977 10980 10983 10986 10988 10989 10991 10993
10824 10822 10821 10819 10817 10815 10813 10811 10808 10806 10804 10801 10799 10797 10795 10792 10790 10787 10784 10782 10779 10777 10774 10771 10768 10765 10763 10761 10760 10758 10756 10755 10755 10755 10755 10756 10758 10761 10763 10766 10769 10771 10774 10777 10779 10786 10797 10806 10814 10821 10824 10823 10825 10835 10845 10849 10855 10863 10871 10878 10885 10891 10899 10905 10910 10913 10917 10921 10927 10932 10936 10940 10945 10950 10955 10957 10959 10963 10969 10973 10976 10978 10981 10984 10986 10988 10990 10992
10820 10819 10817 10816 10814 10812 10810 10808 10805 10802 10800 10797 10795 10793 10790 10787 10784 10781 10778 10775 10772 10769 10766 10763 10759 10756 10753 10751 10749 10746 10743 10742 10741 10741 10741 10742 10744 10746 10749 10752 10756 10759 10761 10762 10767 10776 10787 10795 10802 10807 10809 10812 10819 10831 10838 10842 10847 10856 10864 10873 10880 10887 10894 10899 10901 10904 10908 10915 10922 10928 10933 10937 10942 10946 10950 10951 10956 10963 10969 10971 10973 10976 10979 10983 10985 10987 10988 10991
10816 10815 10814 10812 10810 10808 10806 10804 10801 10799 10796 10793 10790 10788 10784 10781 10778 10775 10772 10768 10765 10762 10759 10755 10752 10747 10743 10740 10738 10735 10732 10729 10727 10727 10727 10728 10730 10732 10734 10738 10741 10744 10746 10749 10755 10765 10775 10782 10788 10792 10798 10806 10816 10824 10830 10834 10842 10852 10861 10869 10876 10882 10888 10891 10893 10897 10903 10911 10918 10924 10929 10933 10937 10942 10945 10949 10955 10961 10964 10967 10970 10974 10977 10980 10983 10985 10987 10989
10812 10811 10810 10809 10807 10805 10802 10800 10797 10794 10791 10788 10785 10782 10779 10776 10773 10770 10767 10763 10760 10756 10753 10749 10745 10739 10734 10730 10727 10723 10720 10717 10716 10715 10715 10715 10716 10718 10721 10723 10726 10730 10733 10737 10744 10753 10761 10768 10774 10782 10790 10800 10809 10817 10823 10830 10839 10849 10857 10864 10871 10876 10880 10883 10887 10893 10900 10907 10913 10919 10924 10928 10933 10937 10941 10947 10952 10956 10960 10964 10968 10971 10974 10978 10981 10983 10985 10987
10809 10808 10807 10805 10803 10801 10798 10796 10793 10789 10786 10783 10781 10778 10775 10772 10768 10766 10762 10758 10754 10751 10747 10743 10738 10732 10726 10721 10717 10713 10709 10707 10705 10704 10703 10703 10704 10705 10708 10710 10713 10717 10721 10726 10732 10739 10746 10754 10763 10771 10780 10791 10801 10808 10814 10821 10828 10837 10847 10856 10864 10869 10871 10875 10881 10888 10896 10903 10909 10915 10920 10924 10930 10934 10939 10944 10949 10953 10957 10961 10965 10969 10972 10975 10979 10981 10982 10985
10806 10805 10803 10802 10799 10797 10794 10792 10788 10785 10782 10779 10777 10774 10771 10767 10764 10762 10758 10754 10750 10746 10741 10737 10732 10725 10718 10712 10707 10703 10700 10698 10695 10694 10694 10694 10694 10695 10696 10698 10702 10706 10710 10715 10720 10727 10735 10743 10751 10760 10770 10781 10790 10796 10803 10809 10817 10828 10839 10849 10856 10860 10864 10869 10877 10885 10893 10900 10906 10911 10916 10921 10926 10931 10936 10941 10945 10950 10954 10958 10962 10966 10969 10972 10975 10978 10980 10982
10803 10801 10800 10798 10796 10793 10790 10787 10784 10781 10778 10775 10773 10770 10767 10763 10760 10757 10754 10750 10746 10742 10736 10731 10725 10719 10712 10705 10700 10696 10693 10690 10689 10688 10687 10686 10686 10686 10688 10690 10692 10696 10700 10706 10712 10718 10725 10732 10741 10752 10763 10773 10781 10787 10793 10799 10810 10824 10834 10841 10846 10852 10859 10866 10875 10883 10889 10895 10901 10906 10912 10917 10922 10927 10932 10937 10942 10946 10950 10955 10959 10963 10966 10969 10972 10976 10979 10980
10799 10798 10796 10794 10792 10789 10786 10783 10780 10777 10774 10771 10769 10766 10763 10760 10757 10754 10750 10746 10743 10738 10732 10726 10720 10713 10706 10700 10695 10690 10687 10685 10684 10683 10682 10680 10680 10681 10682 10683 10685 10689 10692 10697 10704 10709 10716 10724 10733 10744 10755 10764 10771 10777 10783 10792 10806 10818 10825 10831 10839 10846 10855 10863 10871 10878 10884 10890 10896 10901 10907 10913 10918 10924 10928 10933 10938 10942 10947 10951 10955 10960 10963 10966 10969 10973 10976 10978
10796 10795 10793 10790 10788 10785 10782 10779 10776 10773 10770 10767 10764 10762 10759 10756 10753 10750 10746 10743 10739 10734 10729 10723 10716 10709 10702 10696 10691 10686 10683 10681 10680 10680 10678 10677 10677 10677 10678 10679 10681 10684 10687 10691 10695 10701 10708 10716 10726 10737 10747 10756 10763 10770 10779 10791 10804 10811 10816 10824 10833 10841 10850 10857 10863 10869 10876 10882 10890 10896 10903 10909 10915 10920 10924 10929 10934 10938 10943 10948 10952 10956 10959 10962 10966 10970 10973 10976
10792 10791 10789 10787 10784 10781 10778 10775 10772 10769 10766 10763 10760 10758 10756 10753 10750 10747 10743 10740 10736 10731 10726 10720 10713 10706 10699 10693 10688 10684 10681 10678 10677 10677 10676 10675 10674 10674 10675 10676 10678 10680 10683 10687 10690 10695 10703 10711 10719 10730 10740 10748 10758 10767 10777 10788 10798 10803 10809 10819 10828 10835 10844 10851 10855 10861 10868 10875 10884 10892 10898 10904 10910 10916 10920 10925 10930 10935 10939 10944 10948 10951 10955 10959 10963 10966 10970 10973
10788 10787 10785 10783 10780 10777 10774 10772 10768 10766 10763 10760 10757 10754 10752 10749 10746 10744 10740 10737 10733 10729 10723 10718 10711 10704 10697 10692 10687 10682 10679 10677 10675 10675 10674 10673 10673 10672 10673 10674 10676 10678 10681 10684 10687 10693 10700 10707 10714 10723 10733 10742 10753 10763 10772 10781 10789 10796 10805 10816 10824 10830 10838 10844 10850 10858 10864 10871 10879 10887 10892 10898 10905 10911 10915 10920 10926 10931 10936 10940 10944 10948 10951 10955 10959 10962 10966 10969
10785 10783 10781 10779 10776 10773 10771 10768 10765 10762 10759 10756 10754 10751 10749 10746 10743 10741 10738 10734 10730 10726 10721 10716 10709 10703 10696 10691 10686 10681 10678 10676 10674 10673 10673 10672 10671 10671 10671 10673 10675 10677 10680 10683 10686 10691 10697 10704 10712 10720 10728 10737 10746 10756 10766 10774 10781 10788 10799 10808 10816 10823 10830 10836 10843 10852 10858 10865 10873 10879 10885 10893 10900 10905 10910 10916 10921 10927 10932 10936 10940 10944 10948 10951 10955 10959 10962 10966
10781 10778 10777 10774 10772 10769 10767 10765 10762 10760 10757 10753 10751 10748 10746 10743 10741 10738 10735 10732 10728 10724 10719 10714 10709 10702 10696 10690 10686 10682 10678 10676 10674 10673 10672 10671 10671 10670 10671 10672 10674 10676 10679 10682 10685 10689 10695 10702 10709 10715 10722 10731 10740 10748 10758 10766 10772 10781 10791 10798 10806 10817 10825 10831 10838 10845 10851 10859 10867 10873 10880 10888 10894 10900 10905 10911 10917 10922 10927 10932 10936 10940 10944 10947 10951 10955 10959 10963
10777 10774 10772 10770 10768 10766 10764 10762 10759 10757 10754 10751 10748 10745 10743 10740 10738 10736 10733 10730 10726 10722 10718 10713 10708 10702 10696 10690 10686 10682 10679 10676 10675 10673 10672 10672 10671 10671 10671 10672 10673 10676 10678 10682 10685 10689 10694 10701 10706 10710 10716 10725 10734 10743 10751 10758 10765 10774 10784 10792 10803 10814 10822 10828 10834 10841 10850 10858 10864 10870 10877 10884 10889 10895 10901 10907 10912 10918 10923 10927 10931 10936 10939 10943 10947 10951 10955 10959
10773 10771 10769 10766 10764 10763 10761 10759 10756 10754 10751 10748 10745 10742 10740 10738 10736 10733 10731 10728 10725 10721 10717 10712 10707 10702 10696 10691 10687 10683 10679 10677 10676 10674 10673 10672 10672 10671 10671 10672 10673 10675 10678 10681 10685 10689 10694 10700 10704 10708 10715 10723 10731 10738 10745 10752 10761 10771 10780 10791 10802 10811 10818 10824 10833 10842 10851 10858 10863 10868 10874 10880 10886 10891 10897 10903 10908 10913 10919 10923 10927 10931 10935 10939 10943 10947 10951 10955
10769 10768 10766 10763 10761 10760 10758 10756 10754 10751 10749 10746 10742 10740 10737 10735 10733 10731 10729 10726 10724 10720 10716 10711 10707 10702 10697 10691 10687 10684 10681 10678 10676 10675 10674 10673 10673 10673 10672 10673 10674 10676 10679 10682 10685 10688 10693 10698 10702 10707 10714 10721 10728 10734 10741 10749 10760 10770 10780 10790 10799 10807 10813 10820 10831 10840 10846 10853 10860 10865 10869 10875 10881 10887 10893 10898 10904 10909 10915 10919 10923 10927 10931 10935 10940 10944 10948 10952
10766 10764 10763 10761 10758 10757 10755 10753 10751 10749 10746 10743 10740 10737 10735 10733 10731 10728 10726 10724 10722 10719 10715 10711 10707 10702 10698 10693 10688 10685 10682 10679 10677 10676 10675 10674 10673 10673 10674 10674 10675 10677 10679 10683 10686 10690 10693 10697 10702 10707 10713 10719 10726 10732 10741 10750 10758 10767 10777 10786 10795 10802 10808 10818 10827 10833 10839 10847 10853 10858 10863 10869 10876 10882 10888 10894 10900 10905 10910 10915 10919 10923 10927 10932 10936 10940 10945 10949
10762 10761 10760 10758 10756 10754 10752 10750 10749 10746 10744 10741 10738 10735 10733 10731 10728 10726 10724 10722 10720 10717 10714 10710 10706 10703 10699 10694 10690 10686 10683 10681 10678 10676 10676 10675 10674 10674 10675 10675 10676 10677 10680 10683 10686 10690 10693 10696 10701 10706 10711 10717 10723 10729 10738 10747 10754 10762 10771 10779 10788 10796 10804 10814 10821 10826 10833 10840 10844 10849 10857 10864 10871 10878 10883 10889 10895 10901 10906 10911 10915 10919 10923 10928 10933 10937 10941 10946
10759 10758 10757 10755 10753 10751 10749 10748 10746 10744 10741 10738 10735 10733 10731 10729 10726 10724 10722 10720 10718 10716 10713 10709 10706 10703 10699 10696 10692 10688 10684 10682 10679 10677 10676 10675 10675 10674 10675 10676 10676 10678 10680 10682 10686 10689 10693 10696 10700 10705 10710 10715 10721 10727 10735 10743 10750 10757 10765 10773 10782 10791 10800 10810 10817 10822 10828 10832 10836 10843 10853 10860 10868 10873 10879 10884 10891 10897 10902 10906 10910 10915 10920 10924 10930 10935 10938 10944
10756 10755 10754 10752 10750 10749 10747 10745 10743 10741 10739 10736 10734 10731 10729 10727 10724 10722 10721 10719 10716 10714 10712 10709 10705 10702 10699 10696 10693 10689 10686 10683 10680 10678 10677 10676 10675 10675 10675 10676 10676 10678 10680 10683 10685 10688 10692 10695 10699 10703 10708 10713 10719 10726 10733 10740 10746 10753 10762 10770 10778 10787 10796 10805 10811 10817 10822 10826 10831 10840 10848 10856 10863 10868 10873 10880 10886 10892 10898 10902 10906 10911 10916 10921 10926 10932 10937 10942
10753 10752 10751 10749 10747 10745 10744 10742 10740 10738 10736 10734 10732 10730 10727 10725 10722 10720 10719 10717 10714 10712 10711 10708 10705 10701 10699 10696 10693 10690 10687 10684 10681 10679 10678 10676 10675 10675 10675 10676 10676 10678 10680 10682 10685 10687 10690 10694 10697 10702 10706 10712 10717 10723 10730 10737 10744 10751 10759 10767 10775 10783 10792 10799 10805 10811 10816 10820 10827 10835 10842 10849 10856 10861 10867 10874 10880 10887 10892 10897 10901 10906 10911 10917 10922 10928 10935 10942
10751 10749 10748 10746 10744 10742 10741 10739 10737 10736 10734 10732 10730 10728 10726 10723 10721 10719 10717 10715 10713 10711 10709 10707 10704 10701 10699 10696 10693 10690 10687 10685 10682 10680 10678 10677 10675 10675 10675 10675 10676 10677 10679 10681 10684 10686 10689 10692 10695 10699 10704 10709 10715 10720 10727 10734 10741 10748 10755 10763 10771 10779 10786 10793 10798 10804 10809 10814 10821 10829 10836 10844 10850 10855 10862 10868 10874 10880 10885 10891 10896 10901 10907 10912 10917 10923 10931 10937
10748 10747 10745 10743 10741 10740 10738 10736 10734 10733 10732 10730 10728 10727 10725 10722 10720 10717 10714 10713 10711 10709 10707 10705 10703 10700 10698 10696 10694 10691 10688 10685 10683 10681 10679 10677 10675 10674 10674 10674 10675 10676 10677 10680 10682 10684 10687 10690 10693 10697 10700 10705 10710 10716 10723 10729 10735 10741 10749 10757 10765 10773 10780 10785 10790 10796 10802 10808 10816 10822 10829 10837 10843 10849 10856 10863 10868 10874 10880 10886 10891 10896 10901 10906 10911 10917 10923 10927